DUCHIFAT-1 (40021 NORAD) Tracking and Keplerian Element Data

This shows tracking and keplerian element data for the satellite.

Feedback or suggestion? Click here.




ElementValue
Catalog40021
NameDUCHIFAT-1
Epoch Orbit56183
Epoch Day286.54481017
Epoch Year2024
RAAN276.9044
Inclination98.0995
Eccentricity0.0014736
Argument of Perigee68.8468
Mean Anonmoly291.4335
Mean Motion15.13125638
Decay Rate0.00027689
L11 40021U 14033M 24286.54481017 .00027689 00000+0 15582-2 0 9994
L22 40021 98.0995 276.9044 0014736 68.8468 291.4335 15.13125638561837



Live tracking and technical data element details for DUCHIFAT-1 (NORAD 40021). DUCHIFAT-1 can be tracked NOW for your location showing map with azimuth and elevation plus other details from your city location.







IsCatalogInMostPopularTable: catalog: 40021, numindb: 470
Update: records affected: 1



GetName: 40021 DUCHIFAT-1

Hit Count: updated at: Thu, 23 Jan 2025 16:31:20 GMT